GW0245 Weather Reports


Display with metric or nautical units.
time (UTC)temp
F
wind
direction
speed
MPH
gust
MPH
rain 1hr
in
rain 24hr
in
rain mn
in
humidity
%
barometer
mb
20260902201606 87 128 2.0 15.0 0.00 0.10 0.03 41 1018.3
20260902194604 87 140 3.0 10.0 0.00 0.10 0.03 41 1018.6
20260902193104 87 170 4.0 10.0 0.00 0.10 0.03 41 1018.8
20260902191605 86 163 3.0 15.0 0.00 0.10 0.03 42 1019.1
20260902190106 87 155 5.0 12.0 0.00 0.10 0.03 44 1019.1
20260902184601 87 189 4.0 12.0 0.00 0.10 0.03 42 1019.4
20260902183102 86 155 7.0 15.0 0.00 0.10 0.03 42 1019.5
20260902181601 86 182 6.0 16.0 0.00 0.10 0.03 43 1019.5
20260902180105 85 156 5.0 14.0 0.00 0.10 0.03 44 1019.6
20260902174608 85 128 6.0 10.0 0.00 0.10 0.03 46 1019.7
20260902173106 84 150 5.0 10.0 0.00 0.10 0.03 49 1020.1
20260902171607 83 213 5.0 13.0 0.00 0.10 0.03 50 1020.0
20260902170108 81 62 3.0 7.0 0.00 0.10 0.03 55 1020.0
20260902164606 80 80 1.0 4.0 0.00 0.10 0.03 61 1020.1
20260902163105 79 0 1.0 4.0 0.00 0.10 0.03 63 1020.1
20260902161615 78 0 1.0 5.0 0.00 0.10 0.03 65 1020.1
20260902154602 76 0 0.0 3.0 0.00 0.10 0.03 68 1020.0
20260902153117 76 0 0.0 3.0 0.00 0.10 0.03 66 1020.1
20260902151608 75 57 1.0 3.0 0.00 0.10 0.03 69 1020.1
20260902144613 71 0 0.0 2.0 0.00 0.10 0.03 77 1020.0
20260902143102 69 0 0.0 2.0 0.00 0.10 0.03 85 1020.1
20260902141602 69 0 0.0 4.0 0.00 0.10 0.03 82 1019.9
20260902140105 68 302 0.0 4.0 0.00 0.10 0.03 84 1019.8
20260902134601 66 0 0.0 2.0 0.00 0.10 0.03 87 1019.5
20260902133103 65 0 1.0 3.0 0.00 0.10 0.03 87 1019.5
20260902131604 64 265 2.0 4.0 0.00 0.10 0.03 88 1019.3
20260902130104 64 0 0.0 0.0 0.00 0.10 0.03 88 1019.2
20260902124604 65 0 0.0 0.0 0.00 0.10 0.03 87 1019.1
20260902123104 65 0 0.0 2.0 0.00 0.10 0.03 87 1018.9
20260902121613 65 263 1.0 3.0 0.00 0.10 0.03 87 1018.8
20260902120111 65 279 1.0 3.0 0.00 0.10 0.03 87 1018.7
20260902114616 65 279 0.0 3.0 0.00 0.10 0.03 87 1018.7
20260902113104 65 270 0.0 3.0 0.00 0.10 0.03 88 1018.7
20260902111605 65 234 2.0 5.0 0.00 0.10 0.03 89 1018.6
20260902110110 65 254 0.0 3.0 0.00 0.10 0.03 90 1018.7
20260902104557 66 0 0.0 2.0 0.00 0.10 0.03 90 1018.7
20260902103120 66 0 0.0 3.0 0.00 0.10 0.03 90 1018.7
20260902101601 66 237 0.0 2.0 0.03 0.10 0.03 90 1018.8
20260902100101 66 0 0.0 2.0 0.03 0.10 0.03 88 1018.8
20260902094600 66 216 1.0 3.0 0.03 0.10 0.03 86 1018.9
20260902093111 67 0 0.0 10.0 0.03 0.10 0.03 81 1018.8
20260902091601 68 255 0.0 0.0 0.00 0.07 0.00 75 1019.3
20260902090105 69 0 0.0 0.0 0.00 0.07 0.00 75 1019.1
20260902084605 69 0 0.0 2.0 0.00 0.07 0.00 73 1019.0
20260902083102 69 0 0.0 1.0 0.00 0.07 0.00 73 1019.0
20260902081609 70 0 0.0 2.0 0.00 0.07 0.00 73 1019.1
20260902080105 70 0 0.0 1.0 0.00 0.07 0.00 73 1019.1
20260902074614 70 256 0.0 1.0 0.00 0.07 0.00 74 1019.0
20260902073107 70 256 0.0 1.0 0.00 0.07 0.00 72 1018.9
20260902071604 70 256 0.0 2.0 0.00 0.07 0.00 70 1018.7
20260902070107 71 0 0.0 1.0 0.00 0.07 0.00 69 1018.7
20260902064603 71 0 0.0 2.0 0.00 0.07 0.07 69 1018.7
20260902063150 71 0 0.0 2.0 0.00 0.07 0.07 68 1018.9
20260902061558 70 0 1.0 4.0 0.00 0.07 0.07 69 1018.9
20260902060116 70 0 0.0 2.0 0.00 0.07 0.07 70 1018.8
20260902054603 71 284 0.0 2.0 0.00 0.07 0.07 68 1019.0
20260902053106 72 0 0.0 3.0 0.00 0.07 0.07 64 1019.0
20260902051559 72 323 0.0 2.0 0.00 0.07 0.07 63 1018.8
20260902050059 72 0 0.0 3.0 0.00 0.07 0.07 63 1018.8
20260902044605 73 0 0.0 4.0 0.00 0.07 0.07 62 1018.8
20260902043106 74 0 0.0 6.0 0.00 0.07 0.07 61 1018.7
20260902041558 74 238 1.0 4.0 0.00 0.07 0.07 61 1018.7
20260902040108 74 226 1.0 4.0 0.00 0.07 0.07 62 1018.5
20260902034608 75 230 1.0 4.0 0.00 0.07 0.07 61 1018.4
20260902033107 76 215 0.0 3.0 0.00 0.07 0.07 60 1018.1
20260902031608 75 0 0.0 2.0 0.00 0.07 0.07 60 1017.9
20260902024611 75 0 0.0 3.0 0.00 0.07 0.07 58 1017.4
20260902023058 75 0 0.0 3.0 0.00 0.07 0.07 58 1017.3
20260902021604 76 0 0.0 3.0 0.00 0.07 0.07 56 1017.3
20260902020104 76 0 0.0 2.0 0.00 0.07 0.07 54 1017.1
20260902014604 78 0 0.0 2.0 0.00 0.07 0.07 53 1017.0
20260902013102 80 0 0.0 5.0 0.00 0.07 0.07 47 1017.1
20260902011559 81 235 0.0 5.0 0.00 0.07 0.07 48 1017.1
20260902010105 82 214 1.0 7.0 0.00 0.07 0.07 48 1017.1
20260902004603 83 210 2.0 6.0 0.00 0.07 0.07 47 1017.0
20260902003104 83 205 3.0 8.0 0.00 0.07 0.07 46 1017.0
20260902001607 82 205 1.0 6.0 0.00 0.07 0.07 54 1017.2
20260901234613 80 174 3.0 17.0 0.00 0.07 0.07 57 1017.3
20260901233104 79 186 8.0 19.0 0.00 0.07 0.07 54 1017.5
20260901231605 81 146 2.0 7.0 0.07 0.07 0.07 54 1017.5
20260901230105 80 133 2.0 6.0 0.07 0.07 0.07 59 1017.5
20260901224605 75 193 2.0 11.0 0.07 0.07 0.07 72 1017.8
20260901223105 71 204 2.0 12.0 0.07 0.07 0.07 81 1017.9
20260901221608 75 200 6.0 20.0 0.00 0.00 0.00 62 1018.2
20260901220118 83 197 5.0 15.0 0.00 0.00 0.00 37 1018.2
20260901214607 86 205 2.0 7.0 0.00 0.00 0.00 43 1018.0
20260901213112 87 59 3.0 7.0 0.00 0.00 0.00 41 1018.0
20260901211604 89 39 3.0 9.0 0.00 0.00 0.00 39 1018.1
20260901210104 89 0 6.0 16.0 0.00 0.00 0.00 37 1018.2
20260901204602 88 153 6.0 14.0 0.00 0.00 0.00 39 1018.4
20260901203058 88 161 4.0 14.0 0.00 0.00 0.00 41 1018.4